DANTESAT (55127 NORAD) Tracking and Keplerian Element Data

This shows tracking and keplerian element data for the satellite.

Feedback or suggestion? Click here.




ElementValue
Catalog55127
NameDANTESAT
Epoch Orbit250
Epoch Day14.26037094
Epoch Year2023
RAAN10.0766
Inclination51.6386
Eccentricity0.0007276
Argument of Perigee118.8645
Mean Anonmoly241.3082
Mean Motion15.66918564
Decay Rate0.00826962
L11 55127U 98067UU 23014.26037094 .00826962 00000+0 70135-2 0 9991
L22 55127 51.6386 10.0766 0007276 118.8645 241.3082 15.66918564 2504



Live tracking and technical data element details for DANTESAT (NORAD 55127). DANTESAT can be tracked NOW for your location showing map with azimuth and elevation plus other details from your city location.







IsCatalogInMostPopularTable: catalog: 55127, numindb: 14
Update: records affected: 1



GetName: 55127 DANTESAT

Hit Count: updated at: Mon, 27 Mar 2023 08:21:03 GMT